DWEW6128 Weather Reports


time (UTC)temp
F
wind
direction
speed
knots
gust
knots
rain 1hr
in
rain 24hr
in
rain mn
in
humidity
%
barometer
mb
20200607023100 63 0 0.9 1.7 0.00 0.01 0.00 73 1008.9
20200607022600 63 0 0.9 1.7 0.00 0.01 0.00 73 1008.9
20200607022100 63 0 0.9 1.7 0.00 0.01 0.00 74 1008.9
20200607021600 63 0 0.9 2.6 0.00 0.01 0.00 74 1008.9
20200607021100 62 0 0.9 2.6 0.00 0.01 0.00 75 1008.9
20200607020559 62 0 0.9 1.7 0.00 0.01 0.00 76 1008.9
20200607020103 62 0 1.7 2.6 0.00 0.01 0.00 76 1008.9
20200607015600 62 0 1.7 2.6 0.00 0.01 0.00 77 1008.8
20200607015100 62 0 1.7 2.6 0.00 0.01 0.00 77 1008.8
20200607014559 62 0 0.9 4.3 0.00 0.01 0.00 77 1008.8
20200607014100 62 0 1.7 4.3 0.00 0.01 0.00 77 1008.8
20200607013600 63 0 2.6 4.3 0.00 0.01 0.00 76 1008.8
20200607013100 63 0 2.6 2.6 0.00 0.01 0.00 76 1008.8
20200607012600 63 0 1.7 2.6 0.00 0.01 0.00 76 1008.8
20200607012100 63 0 2.6 4.3 0.00 0.01 0.00 77 1008.6
20200607011559 62 0 1.7 2.6 0.00 0.01 0.00 78 1008.6
20200607011100 62 0 1.7 2.6 0.00 0.01 0.00 78 1008.6
20200607010600 63 0 0.9 1.7 0.00 0.01 0.00 78 1008.6
20200607010102 63 0 0.9 1.7 0.00 0.01 0.00 77 1008.6
20200607005600 63 0 1.7 2.6 0.00 0.01 0.00 75 1008.6
20200607005059 64 0 0.9 1.7 0.00 0.01 0.00 73 1008.6
20200607004600 64 0 1.7 2.6 0.00 0.01 0.00 73 1008.6
20200607004059 64 0 0.9 1.7 0.00 0.01 0.00 72 1008.6
20200607003559 65 0 0.9 1.7 0.00 0.01 0.00 72 1008.6
20200607003100 64 0 1.7 2.6 0.00 0.01 0.00 72 1008.7
20200607002559 64 0 0.9 1.7 0.00 0.01 0.00 72 1008.7
20200607002100 64 0 0.0 1.7 0.00 0.01 0.00 73 1008.8
20200607001559 64 0 0.9 1.7 0.00 0.01 0.00 73 1008.8
20200607001059 64 0 0.9 1.7 0.00 0.01 0.00 73 1008.8
20200607000559 64 0 0.0 1.7 0.00 0.01 0.00 73 1008.8
20200607000102 64 0 1.7 2.6 0.00 0.02 0.00 73 1008.8
20200606235600 64 0 1.7 2.6 0.00 0.02 0.00 74 1008.9
20200606235100 64 0 1.7 2.6 0.00 0.02 0.00 74 1008.9
20200606234600 64 0 1.7 4.3 0.00 0.02 0.00 74 1008.9
20200606234059 64 0 2.6 4.3 0.00 0.02 0.00 74 1008.9
20200606233559 64 0 2.6 4.3 0.00 0.02 0.00 75 1008.9
20200606233059 64 0 2.6 4.3 0.00 0.04 0.00 75 1009.0
20200606232559 64 0 1.7 2.6 0.00 0.06 0.00 76 1009.0
20200606232100 64 0 2.6 2.6 0.00 0.07 0.00 77 1009.0
20200606231600 64 0 1.7 2.6 0.00 0.09 0.00 77 1009.0
20200606231100 64 0 1.7 2.6 0.00 0.11 0.00 78 1009.0
20200606230559 64 0 2.6 4.3 0.00 0.12 0.00 78 1009.0
20200606230102 64 0 2.6 4.3 0.00 0.15 0.00 79 1009.0
20200606225559 64 0 2.6 4.3 0.00 0.17 0.00 79 1009.0
20200606225059 64 0 2.6 4.3 0.00 0.19 0.00 80 1009.0
20200606224559 64 0 2.6 4.3 0.00 0.21 0.00 80 1009.0
20200606224059 64 0 2.6 4.3 0.00 0.23 0.00 80 1009.2
20200606223600 64 0 1.7 2.6 0.00 0.25 0.00 80 1009.2
20200606223059 65 0 2.6 4.3 0.00 0.27 0.00 80 1009.2
20200606222559 65 0 2.6 4.3 0.00 0.28 0.00 80 1009.2
20200606222100 65 0 2.6 4.3 0.00 0.31 0.00 80 1009.2
20200606221559 65 0 2.6 4.3 0.00 0.33 0.00 80 1009.2
20200606221103 65 0 2.6 5.2 0.00 0.35 0.00 80 1009.2
20200606220600 65 0 2.6 5.2 0.00 0.37 0.00 80 1009.2
20200606220102 65 0 4.3 6.1 0.00 0.39 0.00 80 1009.2
20200606215559 65 0 2.6 6.1 0.00 0.41 0.40 80 1009.0
20200606215100 65 0 3.5 6.1 0.00 0.43 0.40 81 1009.0
20200606214600 65 0 2.6 4.3 0.00 0.46 0.40 81 1009.0
20200606214059 65 0 4.3 6.1 0.00 0.49 0.40 81 1009.0
20200606213559 65 0 2.6 5.2 0.00 0.50 0.40 81 1009.0
20200606213100 65 0 4.3 7.0 0.00 0.53 0.40 81 1009.0
20200606212559 65 0 2.6 6.1 0.00 0.53 0.40 81 1009.0
20200606212059 65 0 4.3 6.1 0.00 0.54 0.40 81 1009.0
20200606211600 65 0 3.5 6.1 0.00 0.54 0.40 81 1009.0
20200606211100 65 0 3.5 6.1 0.00 0.54 0.40 81 1009.0
20200606210559 65 0 4.3 6.1 0.00 0.55 0.40 80 1009.0
20200606210102 65 0 3.5 6.1 0.00 0.55 0.40 80 1009.0
20200606205600 65 0 4.3 7.0 0.00 0.55 0.40 80 1009.0
20200606205100 65 0 4.3 7.8 0.00 0.55 0.40 80 1008.8
20200606204559 65 0 3.5 7.8 0.00 0.56 0.40 80 1008.8
20200606204059 66 0 4.3 6.1 0.00 0.56 0.40 80 1008.8
20200606203600 66 0 4.3 7.0 0.00 0.58 0.40 79 1008.8
20200606203059 66 0 4.3 7.0 0.00 0.58 0.40 79 1008.8
20200606202559 66 0 4.3 7.0 0.00 0.58 0.40 79 1008.8
20200606202059 66 0 5.2 7.0 0.00 0.58 0.40 79 1008.8
20200606201559 66 0 4.3 5.2 0.00 0.59 0.40 78 1008.8
20200606201059 66 0 4.3 6.1 0.00 0.60 0.40 78 1008.8
20200606200559 67 0 4.3 6.1 0.00 0.61 0.40 78 1008.8
20200606200103 66 0 4.3 7.0 0.00 0.61 0.40 79 1008.8
20200606195559 66 0 5.2 7.8 0.00 0.62 0.40 79 1008.2
20200606195100 67 0 4.3 7.0 0.00 0.62 0.40 78 1008.2
20200606194559 67 0 5.2 6.1 0.00 0.63 0.40 78 1008.2
20200606194059 67 0 4.3 5.2 0.00 0.64 0.40 78 1008.2
20200606193559 67 0 4.3 6.1 0.00 0.66 0.40 78 1008.2
20200606193059 67 0 4.3 6.1 0.00 0.66 0.40 79 1008.2
20200606192559 67 0 3.5 7.0 0.00 0.67 0.40 80 1008.2
20200606192059 66 0 4.3 6.1 0.00 0.68 0.40 81 1008.2
20200606191559 66 0 2.6 4.3 0.00 0.69 0.40 81 1008.2
20200606191059 66 0 1.7 2.6 0.00 0.71 0.40 80 1008.2
20200606190559 67 0 0.9 1.7 0.00 0.72 0.40 79 1008.2
20200606190102 67 0 1.7 2.6 0.00 0.75 0.40 77 1008.1
20200606185600 67 0 1.7 2.6 0.00 0.79 0.40 77 1008.2
20200606185100 68 0 0.9 2.6 0.00 0.80 0.40 76 1008.2
20200606184559 68 0 0.9 1.7 0.00 0.86 0.40 74 1008.2
20200606184059 68 0 0.0 1.7 0.00 0.88 0.40 72 1008.2
20200606183559 68 0 0.9 1.7 0.00 0.88 0.40 72 1008.2
20200606183101 69 0 0.9 1.7 0.00 0.89 0.40 71 1008.2
20200606182559 69 0 0.9 1.7 0.00 0.90 0.40 70 1008.2
20200606182059 69 0 0.9 2.6 0.00 0.92 0.40 70 1008.2
20200606181559 70 0 0.9 2.6 0.00 0.92 0.40 69 1008.2
20200606181059 70 0 0.9 2.6 0.00 0.92 0.40 68 1008.1
20200606180559 70 0 1.7 2.6 0.00 0.93 0.40 68 1008.1
20200606180102 70 0 0.9 2.6 0.00 0.94 0.40 67 1008.1
20200606175559 71 0 1.7 2.6 0.00 0.95 0.40 67 1008.1
20200606175059 71 0 0.9 2.6 0.00 0.97 0.40 68 1008.0
20200606174559 71 0 0.9 1.7 0.00 0.97 0.40 68 1008.0
20200606174059 71 0 0.9 2.6 0.00 0.97 0.40 68 1007.9
20200606173559 71 0 0.9 2.6 0.00 0.98 0.40 68 1007.9
20200606173059 71 0 2.6 5.2 0.00 0.98 0.40 67 1007.9
20200606172559 72 0 1.7 2.6 0.00 0.99 0.40 66 1007.9
20200606172059 72 0 1.7 2.6 0.00 1.00 0.40 66 1007.9
20200606171559 72 0 0.9 4.3 0.00 1.01 0.40 65 1007.9
20200606171059 72 0 1.7 4.3 0.00 1.01 0.40 63 1007.9
20200606170600 72 0 0.9 4.3 0.00 1.01 0.40 62 1007.9
20200606170102 73 0 1.7 4.3 0.00 1.03 0.40 62 1007.9
20200606165600 73 0 1.7 4.3 0.00 1.05 0.40 62 1007.8
20200606165059 73 0 1.7 4.3 0.00 1.05 0.40 62 1007.8
20200606164559 73 0 1.7 4.3 0.00 1.08 0.40 61 1007.8
20200606164059 74 0 0.9 2.6 0.00 1.09 0.40 61 1007.8
20200606163559 74 0 0.9 2.6 0.00 1.11 0.40 62 1007.8
20200606163100 74 0 2.6 5.2 0.00 1.13 0.40 61 1007.8
20200606162559 74 0 1.7 4.3 0.00 1.14 0.40 60 1007.8
20200606162059 74 0 0.9 2.6 0.00 1.16 0.40 61 1007.8
20200606161559 74 0 1.7 4.3 0.00 1.19 0.40 59 1007.8
20200606161059 75 0 0.9 2.6 0.00 1.20 0.40 58 1007.8
20200606160559 76 0 1.7 6.1 0.00 1.22 0.40 56 1007.8
20200606160101 76 0 0.9 2.6 0.00 1.22 0.40 58 1007.8
20200606155558 76 0 1.7 4.3 0.00 1.24 0.40 56 1007.9
20200606155100 78 0 0.9 4.3 0.00 1.25 0.40 54 1007.9
20200606154559 78 0 0.9 2.6 0.00 1.26 0.40 54 1007.9
20200606154059 77 0 0.0 1.7 0.00 1.27 0.40 56 1007.9
20200606153600 77 0 0.9 2.6 0.00 1.27 0.40 55 1007.9
20200606153059 77 0 1.7 2.6 0.00 1.29 0.40 55 1007.9
20200606152559 77 0 0.9 2.6 0.00 1.30 0.40 53 1007.9
20200606152059 78 0 1.7 4.3 0.00 1.31 0.40 52 1007.8
20200606151559 78 0 0.9 2.6 0.00 1.33 0.40 51 1007.8
20200606151058 78 0 1.7 2.6 0.00 1.35 0.40 52 1007.8
20200606150559 79 0 0.9 2.6 0.00 1.36 0.40 52 1007.8
20200606150102 79 0 0.9 1.7 0.00 1.37 0.40 50 1007.8
20200606145559 79 0 0.9 1.7 0.00 1.37 0.40 52 1007.9
20200606145059 78 0 0.9 1.7 0.00 1.39 0.40 54 1007.9
20200606144558 78 0 0.9 2.6 0.00 1.41 0.40 53 1007.9
20200606144059 79 0 1.7 4.3 0.00 1.42 0.40 52 1007.9
20200606143605 79 0 0.9 1.7 0.00 1.46 0.40 53 1007.9
20200606143135 78 0 0.9 1.7 0.00 1.48 0.40 54 1007.9
20200606142559 78 5 0.9 2.6 0.00 1.52 0.40 52 1007.9
20200606142059 78 0 0.9 4.3 0.00 1.53 0.40 53 1007.9
20200606141558 79 0 0.9 1.7 0.00 1.55 0.40 52 1007.9
20200606141059 78 0 0.9 2.6 0.00 1.56 0.40 53 1007.9
20200606140558 78 0 0.9 2.6 0.00 1.58 0.40 54 1007.9
20200606140102 77 0 0.9 2.6 0.00 1.60 0.40 55 1007.9
20200606135559 76 0 1.7 4.3 0.00 1.61 0.40 56 1007.9
20200606135059 76 0 1.7 4.3 0.00 1.66 0.40 56 1007.9
20200606134559 76 0 1.7 7.0 0.00 1.70 0.40 57 1007.9
20200606134058 76 0 1.7 4.3 0.00 1.75 0.40 56 1007.9
20200606133559 76 0 1.7 6.1 0.00 1.78 0.40 54 1007.9
20200606133058 77 0 1.7 5.2 0.00 1.80 0.40 54 1007.9
20200606132559 78 0 1.7 2.6 0.00 1.85 0.40 55 1007.9
20200606132058 78 0 1.7 2.6 0.00 1.88 0.40 56 1007.9
20200606131559 77 0 0.9 2.6 0.00 1.92 0.40 57 1007.9
20200606131058 77 0 0.9 2.6 0.00 1.94 0.40 58 1007.9
20200606130559 77 0 1.7 2.6 0.00 1.97 0.40 59 1007.9
20200606130102 77 0 0.9 5.2 0.00 2.00 0.40 60 1007.9
20200606125559 77 0 0.9 2.6 0.00 2.04 0.40 60 1007.9
20200606125058 77 0 0.9 2.6 0.00 2.08 0.40 59 1007.9
20200606124559 77 0 1.7 2.6 0.00 2.13 0.40 59 1007.9
20200606124059 77 0 0.9 4.3 0.00 2.16 0.40 59 1007.9
20200606123559 77 0 1.7 2.6 0.00 2.19 0.40 59 1007.9
20200606123058 77 0 1.7 2.6 0.00 2.21 0.40 60 1007.9
20200606122559 77 0 1.7 4.3 0.00 2.22 0.40 59 1007.9
20200606122059 77 0 0.9 4.3 0.00 2.25 0.40 60 1007.8
20200606121558 77 0 0.9 5.2 0.00 2.26 0.40 60 1007.8
20200606121058 76 0 0.9 2.6 0.00 2.30 0.40 60 1007.8
20200606120559 76 0 0.9 2.6 0.00 2.31 0.40 59 1007.8
20200606120102 76 0 1.7 2.6 0.00 2.33 0.40 60 1007.8
20200606115558 77 0 1.7 4.3 0.00 2.34 0.40 60 1007.7
20200606115058 77 0 0.9 2.6 0.00 2.36 0.40 62 1007.7
20200606114559 76 0 0.9 2.6 0.00 2.38 0.40 62 1007.7
20200606114058 76 0 0.9 2.6 0.00 2.38 0.40 63 1007.7
20200606113558 76 0 0.9 2.6 0.00 2.38 0.40 62 1007.7
20200606113058 76 0 1.7 2.6 0.00 2.39 0.40 62 1007.7
20200606112558 76 0 1.7 4.3 0.00 2.39 0.40 61 1007.7
20200606112059 76 0 0.9 5.2 0.00 2.40 0.40 63 1007.8
20200606111558 76 0 0.9 4.3 0.00 2.41 0.40 63 1007.8
20200606111058 75 0 0.9 2.6 0.00 2.41 0.40 63 1007.8
20200606110559 75 0 1.7 2.6 0.00 2.41 0.40 63 1007.8
20200606110101 74 0 0.9 6.1 0.00 2.42 0.40 65 1007.8
20200606105559 74 0 1.7 6.1 0.00 2.42 0.40 65 1007.9
20200606105058 73 0 1.7 2.6 0.00 2.42 0.40 66 1007.9
20200606104558 73 0 1.7 4.3 0.00 2.42 0.40 66 1007.9
20200606104058 72 0 1.7 4.3 0.00 2.42 0.40 67 1007.9
20200606103558 72 0 1.7 4.3 0.00 2.42 0.40 68 1007.9
20200606103107 72 0 2.6 6.1 0.00 2.42 0.40 68 1007.9
20200606102558 71 0 0.9 2.6 0.00 2.42 0.40 72 1007.9
20200606102058 71 0 1.7 7.0 0.00 2.42 0.40 70 1007.9
20200606101559 71 0 4.3 7.0 0.00 2.42 0.40 69 1007.9
20200606101058 71 0 0.0 2.6 0.00 2.42 0.40 71 1007.9
20200606100559 71 0 0.9 2.6 0.00 2.42 0.40 70 1007.9
20200606100101 71 0 1.7 5.2 0.00 2.42 0.40 71 1008.0
20200606095559 70 0 1.7 5.2 0.00 2.42 0.40 71 1008.0
20200606095058 70 0 1.7 4.3 0.00 2.42 0.40 74 1008.0
20200606094559 69 0 0.9 2.6 0.00 2.42 0.40 75 1008.0
20200606094058 69 0 1.7 4.3 0.00 2.42 0.40 75 1008.0
20200606093558 69 0 0.9 2.6 0.00 2.42 0.40 75 1008.0
20200606093058 69 0 1.7 5.2 0.00 2.42 0.40 76 1007.9
20200606092558 69 0 1.7 4.3 0.00 2.42 0.40 76 1007.9
20200606092058 69 0 1.7 6.1 0.00 2.42 0.40 76 1007.9
20200606091558 69 0 2.6 7.0 0.00 2.42 0.40 75 1007.9
20200606091058 69 0 0.9 2.6 0.00 2.42 0.40 77 1007.9
20200606090558 69 0 1.7 4.3 0.00 2.42 0.40 77 1007.9
20200606090101 69 0 0.9 2.6 0.00 2.42 0.40 77 1007.9
20200606085558 69 0 1.7 2.6 0.00 2.42 0.40 77 1007.2
20200606085058 69 0 1.7 2.6 0.00 2.42 0.40 79 1007.2
20200606084558 69 0 0.9 2.6 0.00 2.42 0.40 79 1007.2
20200606084058 69 0 1.7 4.3 0.00 2.42 0.40 79 1007.2
20200606083559 69 0 0.9 2.6 0.00 2.42 0.40 79 1007.2
20200606083059 69 0 1.7 2.6 0.00 2.42 0.40 78 1007.2
20200606082558 69 0 1.7 4.3 0.00 2.42 0.40 79 1007.2
20200606082058 69 0 1.7 4.3 0.00 2.42 0.40 80 1007.2
20200606081558 69 0 1.7 4.3 0.00 2.42 0.40 80 1007.2
20200606081058 69 0 1.7 4.3 0.00 2.42 0.40 80 1007.2
20200606080558 69 0 1.7 5.2 0.00 2.42 0.40 80 1007.2
20200606080101 69 0 2.6 7.0 0.00 2.42 0.40 79 1007.2
20200606075558 69 0 1.7 5.2 0.00 2.42 0.40 79 1006.8
20200606075058 69 0 2.6 7.0 0.00 2.42 0.40 80 1006.8
20200606074558 68 0 1.7 6.1 0.00 2.42 0.40 82 1006.8
20200606074058 68 0 1.7 4.3 0.00 2.42 0.40 84 1006.8
20200606073558 67 0 2.6 6.1 0.00 2.42 0.40 85 1006.8
20200606073058 67 0 1.7 7.8 0.00 2.42 0.40 86 1006.8
20200606072558 67 0 1.7 6.1 0.00 2.42 0.40 89 1006.8
20200606072059 66 0 3.5 8.7 0.00 2.42 0.40 91 1006.7
20200606071558 65 0 1.7 4.3 0.00 2.42 0.40 93 1006.7
20200606071058 65 0 2.6 6.1 0.00 2.42 0.40 94 1006.7
20200606070558 64 0 1.7 5.2 0.00 2.42 0.40 95 1006.7
20200606070101 64 0 1.7 2.6 0.00 2.42 0.40 95 1006.7
20200606065558 64 0 2.6 6.1 0.00 2.42 0.40 96 1006.3
20200606065058 63 0 2.6 8.7 0.00 2.42 0.40 96 1006.3
20200606064558 63 0 4.3 8.7 0.00 2.42 0.40 96 1006.3
20200606064058 62 0 4.3 6.1 0.00 2.42 0.40 96 1006.3
20200606063558 62 0 2.6 5.2 0.00 2.42 0.40 96 1006.3
20200606063058 62 0 1.7 5.2 0.00 2.42 0.40 96 1006.3
20200606062558 62 0 2.6 6.1 0.00 2.42 0.40 96 1006.3
20200606062058 62 0 1.7 7.8 0.00 2.42 0.40 96 1006.3
20200606061558 62 0 3.5 7.0 0.00 2.42 0.40 96 1006.3
20200606061058 61 0 4.3 6.1 0.00 2.42 0.40 96 1006.3
20200606060558 61 0 4.3 7.8 0.00 2.42 0.40 96 1006.3
20200606060101 61 0 2.6 6.1 0.00 2.42 0.40 96 1006.3
20200606055558 61 0 1.7 5.2 0.00 2.42 0.40 96 1006.3
20200606055058 61 0 2.6 6.1 0.00 2.42 0.40 96 1006.3
20200606054558 61 0 2.6 4.3 0.00 2.42 0.40 96 1006.3
20200606054058 61 0 0.9 2.6 0.00 2.42 0.40 96 1006.2
20200606053558 61 0 0.9 2.6 0.00 2.42 0.40 96 1006.2
20200606053058 61 0 0.9 2.6 0.00 2.42 0.40 96 1006.2
20200606052558 61 0 0.9 2.6 0.00 2.42 0.40 96 1006.2
20200606052058 61 0 0.9 2.6 0.00 2.42 0.40 96 1005.9
20200606051558 61 0 0.9 2.6 0.00 2.42 0.40 96 1005.9
20200606051058 61 0 0.9 1.7 0.00 2.42 0.40 96 1005.9
20200606050558 61 0 1.7 2.6 0.00 2.42 0.40 96 1005.9
20200606050101 61 0 0.9 2.6 0.00 2.42 0.40 96 1005.7
20200606045558 61 0 0.9 2.6 0.00 2.42 0.40 96 1005.2
20200606045058 61 0 1.7 2.6 0.00 2.42 0.40 96 1005.2
20200606044559 61 0 0.9 1.7 0.01 2.42 0.40 96 1005.2
20200606044058 61 0 0.9 2.6 0.01 2.42 0.40 96 1005.2
20200606043558 61 0 0.9 2.6 0.01 2.42 0.40 96 1005.2
20200606043058 61 0 0.9 2.6 0.01 2.42 0.40 96 1005.2
20200606042558 61 0 0.9 2.6 0.01 2.42 0.40 96 1005.2
20200606042058 61 0 1.7 4.3 0.01 2.42 0.40 96 1005.2
20200606041558 61 0 2.6 6.1 0.01 2.42 0.40 96 1005.2
20200606041058 61 0 0.9 2.6 0.01 2.42 0.40 96 1005.2
20200606040558 61 0 0.9 2.6 0.01 2.42 0.40 96 1005.2
20200606040101 61 0 1.7 4.3 0.01 2.42 0.40 96 1005.2
20200606035557 61 0 0.9 2.6 0.01 2.42 0.40 96 1004.3
20200606035058 61 0 1.7 4.3 0.01 2.42 0.40 96 1004.3
20200606034558 61 0 1.7 4.3 0.00 2.41 0.39 96 1004.3
20200606034058 61 0 1.7 6.1 0.00 2.41 0.39 96 1004.3
20200606033558 61 0 1.7 5.2 0.00 2.41 0.39 96 1004.3
20200606033058 61 0 0.9 2.6 0.00 2.41 0.39 96 1004.3
20200606032558 61 0 1.7 5.2 0.00 2.41 0.39 96 1004.3
20200606032058 60 0 0.9 2.6 0.00 2.41 0.39 96 1004.3
20200606031558 60 0 1.7 2.6 0.00 2.41 0.39 96 1004.3
20200606031058 60 0 0.9 5.2 0.00 2.41 0.39 96 1004.3
20200606030558 60 0 1.7 2.6 0.00 2.41 0.39 96 1004.3
20200606030100 60 0 1.7 2.6 0.00 2.41 0.39 96 1004.3
20200606025557 60 0 0.9 2.6 0.00 2.41 0.39 96 1003.7
20200606025058 60 0 1.7 2.6 0.00 2.41 0.39 96 1003.7
20200606024558 60 0 0.9 2.6 0.00 2.41 0.39 96 1003.7
20200606024057 60 0 0.0 0.9 0.00 2.41 0.39 96 1003.7
20200606023558 60 0 0.0 1.7 0.00 2.41 0.39 96 1003.7